This demonstration page uses our WeatherBlox Daily Observations layout. Learn more.

Left ArrowRight Arrow

44.89941, -97.11507

Hourly Observations for January 12, 2021

Temp ( °F °C ) Dew Point ( °F °C ) Humidity (%) Winds ( mph kmh ) Pressure ( in mb ) Visibility ( mi km ) Precip ( " mm )
12:53 am 00:53 Clear 21 -6.1 19 -7.2 92 92 Calm 30.05 1018 10 16 0.00 0.00
1:53 am 01:53 Clear 20 -6.7 19 -7.2 96 96 WSW 7 11 30.06 1018 10 16 0.00 0.00
2:53 am 02:53 Clear 22 -5.6 21 -6.1 96 96 S 5 7 30.04 1017 10 16 0.00 0.00
3:53 am 03:53 Clear with Mist and Fog 20 -6.7 19 -7.2 96 96 Calm 30.04 1017 3 5 0.00 0.00
4:53 am 04:53 Clear 19 -7.2 18 -7.8 96 96 S 5 7 30.02 1017 9 14 0.00 0.00
5:53 am 05:53 Clear 19 -7.2 18 -7.8 96 96 SW 7 11 30.02 1017 10 16 0.00 0.00
6:53 am 06:53 Clear 19 -7.2 17 -8.3 92 92 S 7 11 30.02 1017 10 16 0.00 0.00
7:53 am 07:53 Clear 22 -5.6 20 -6.7 92 92 S 6 9 30.02 1017 10 16 0.00 0.00
8:53 am 08:53 Sunny 24 -4.4 22 -5.6 91 91 SSW 7 11 30.01 1016 10 16 0.00 0.00
9:53 am 09:53 Sunny 30 -1.1 26 -3.3 85 85 SW 8 13 30.01 1016 10 16 0.00 0.00
10:53 am 10:53 Sunny 31 -0.6 28 -2.2 89 89 SW 9 15 30.00 1016 10 16 0.00 0.00
11:53 am 11:53 Sunny 34 1.1 29 -1.7 82 82 SW 5 7 29.97 1015 10 16 0.00 0.00
12:53 pm 12:53 Sunny 39 3.9 29 -1.7 67 67 WSW 12 19 29.94 1014 10 16 0.00 0.00
1:53 pm 13:53 Sunny 40 4.4 29 -1.7 65 65 W 15 24 29.93 1014 10 16 0.00 0.00
2:53 pm 14:53 Sunny 39 3.9 30 -1.1 70 70 W 13 20 29.92 1013 10 16 0.00 0.00
3:53 pm 15:53 Sunny 37 2.8 31 -0.6 79 79 WSW 14 22 29.91 1013 10 16 0.00 0.00
4:53 pm 16:53 Sunny 33 0.6 30 -1.1 89 89 SSW 6 9 29.93 1014 10 16 0.00 0.00
5:53 pm 17:53 Clear 31 -0.6 28 -2.2 89 89 SSW 7 11 29.93 1014 10 16 0.00 0.00
6:53 pm 18:53 Clear 29 -1.7 27 -2.8 92 92 SW 5 7 29.93 1013 10 16 0.00 0.00
7:53 pm 19:53 Clear 30 -1.1 28 -2.2 92 92 Calm 29.91 1013 10 16 0.00 0.00
8:53 pm 20:53 Clear 27 -2.8 25 -3.9 92 92 SSW 5 7 29.91 1013 10 16 0.00 0.00
9:53 pm 21:53 Clear 28 -2.2 26 -3.3 92 92 S 3 6 29.90 1012 10 16 0.00 0.00
10:53 pm 22:53 Clear 31 -0.6 28 -2.2 89 89 SE 3 6 29.88 1012 10 16 0.00 0.00
11:53 pm 23:53 Clear 29 -1.7 27 -2.8 92 92 S 3 6 29.86 1011 10 16 0.00 0.00

Powered by AerisWeather